Home > Weather > Clarksville > Past weeks

Flag for USA Past Weather in Clarksville, Tennessee, USA — Yesterday and Last 2 Weeks

Now
91 °F

Partly sunny.


Feels Like: 100 °F
Forecast: 72 / 89 °F
Wind: 9 mph from Northeast

Location: Outlaw Field

Current Time: Aug 29, 2016 at 4:54:19 PM

Latest Report: Aug 29, 2016 at 3:52 PM


Visibility: 10 mi

Pressure: 30.08 "Hg

Humidity: 56%

Dew Point: 73 °F

Location of ClarksvilleLocation

Past Weather in Clarksville — Graph

°F

Clarksville Temperature Yesterday

Maximum temperature yesterday: 93 °F (at 1:52 PM)
Minimum temperature yesterday: 71 °F (at 3:52 AM)
Average temperature yesterday: 81 °F

High & Low Weather Summary for the Past Weeks

 TemperatureHumidityPressure
High93 °F (Aug 28, 1:52 PM)97% (Aug 17, 5:52 AM)30.26 "Hg (Aug 17, 5:52 AM)
Low57 °F (Aug 23, 3:52 AM)44% (Aug 21, 4:52 PM)29.77 "Hg (Aug 20, 3:52 PM)
Average77 °F81%30.07 "Hg
* Reported Aug 14 3:52 PM — Aug 29 3:52 PM, Clarksville, Weather by CustomWeather, © 2016

Note: Actual official high and low records may vary slightly from our data, if they occured in-between our weather recording intervals... More about our weather records

Advertising

Clarksville Weather History for the Previous 24 Hours

Scroll right to see more
 ConditionsComfort  
Time TempWeatherWind HumidityBarometerVisibility
3:52 PM
Mon, Aug 29
91 °FPartly sunny.9 mph56%30.08 "Hg10 mi
2:52 PM91 °FScattered clouds.7 mph54%30.09 "Hg10 mi
1:52 PM90 °FPassing clouds.No wind54%30.12 "Hg10 mi
12:52 PM88 °FSunny.No wind55%30.14 "Hg10 mi
11:52 AM86 °FSunny.3 mph59%30.15 "Hg10 mi
10:52 AM84 °FSunny.3 mph67%30.16 "Hg10 mi
9:52 AM80 °FSunny.5 mph74%30.16 "Hg10 mi
8:52 AM76 °FScattered clouds.5 mph80%30.16 "Hg10 mi
7:52 AM74 °FSunny.5 mph85%30.15 "Hg10 mi
6:52 AM71 °FSunny.No wind90%30.12 "Hg10 mi
5:52 AM70 °FClear.5 mph90%30.11 "Hg10 mi
4:52 AM71 °FClear.5 mph90%30.09 "Hg10 mi
3:52 AM71 °FClear.5 mph90%30.09 "Hg10 mi
2:52 AM72 °FClear.3 mph91%30.10 "Hg10 mi
1:52 AM72 °FClear.5 mph91%30.10 "Hg10 mi
12:52 AM73 °FClear.6 mph88%30.12 "Hg10 mi
11:52 PM
Sun, Aug 28
75 °FClear.No wind82%30.11 "Hg10 mi
10:52 PM77 °FClear.No wind77%30.11 "Hg10 mi
9:52 PM80 °FClear.9 mph71%30.12 "Hg10 mi
8:52 PM81 °FClear.3 mph74%30.10 "Hg10 mi
7:52 PM83 °FClear.6 mph72%30.07 "Hg10 mi
6:52 PM86 °FSunny.3 mph67%30.06 "Hg10 mi
5:52 PM90 °FSunny.5 mph59%30.05 "Hg10 mi
4:52 PM89 °FSunny.7 mph59%30.06 "Hg10 mi
Weather by CustomWeather, © 2016

See weather overviewHow to use our weather pages